Location: Auckland
(36.8500°S, 174.7800°E)
Time: 00:59:15
(UTC+12:00)

ISS - Visible Passes

Search period start: 04 August 2020 00:00
Search period end: 14 August 2020 00:00
Orbit: 419 x 420 km, 51.6° (Epoch: 04 August)

Date Brightness Start Highest point End Pass type
(mag) Time Alt. Az. Time Alt. Az. Time Alt. Az.
05 Aug -1.1 06:25:39 10° S 06:27:31 14° SSE 06:29:25 10° SE visible
06 Aug -0.9 05:38:51 10° S 05:39:41 11° SSE 05:40:32 10° SSE visible
07 Aug -2.0 06:26:33 10° SSW 06:29:33 27° SSE 06:32:31 10° E visible
08 Aug -1.5 05:40:21 15° S 05:41:47 19° SSE 05:44:19 10° ESE visible
09 Aug -0.8 04:54:47 13° SE 04:54:47 13° SE 04:55:51 10° SE visible
09 Aug -3.6 06:27:50 10° SW 06:31:16 76° SE 06:34:40 10° NE visible
10 Aug -2.8 05:42:16 28° SSW 05:43:37 43° SE 05:46:53 10° ENE visible
11 Aug -1.4 04:56:52 23° ESE 04:56:52 23° ESE 04:58:53 10° E visible
11 Aug -2.7 06:29:50 11° WSW 06:32:42 31° NW 06:35:44 10° NNE visible
12 Aug -3.6 05:44:32 47° W 05:45:09 58° NW 05:48:30 10° NE visible
13 Aug -1.7 04:59:19 26° ENE 04:59:19 26° ENE 05:00:57 10° NE visible
